Montgomery, NY

9:53 AM EDT on April 30, 2017 (GMT -0400)
Orange County

Weather History for KMGJ - August, 2013

Change the Weather History Date:

Saturday, August 3, 2013

  Actual Average (KSWF) Record (KSWF)
Temperature  
Mean Temperature 70 °F -  
Max Temperature 79 °F 80 °F 95 °F (1975)
Min Temperature 62 °F 60 °F 33 °F (1996)
Cooling Degree Days 5    
Growing Degree Days 20 (Base 50)    
Moisture  
Dew Point 63 °F    
Average Humidity 83    
Maximum Humidity 93    
Minimum Humidity 62    
Precipitation  
Precipitation 0.02 in - - ()
Sea Level Pressure  
Sea Level Pressure 29.87 in    
Wind  
Wind Speed 5 mph (SW)    
Max Wind Speed 12 mph    
Max Gust Speed -    
Visibility 10 miles    
Events Rain    
Averages and records for this station are not official NWS values.
T = Trace of Precipitation, MM = Missing Value Source: NWS Daily Summary

Daily Weather History Graph

Daily Weather History Graph

Search for Another Location

Airport or City:

Trip Planner

Search our weather history database for the weather conditions in past years. The results will help you decide how hot, cold, wet, or windy it might be!

Date:

Astronomy

Aug. 03, 2013 Rise Set
Actual Time 5:53 AM EDT 8:11 PM EDT
Civil Twilight 5:22 AM EDT 8:42 PM EDT
Nautical Twilight 4:44 AM EDT 9:20 PM EDT
Astronomical Twilight 4:02 AM EDT 10:02 PM EDT
Moon 3:00 AM EDT (8/3) 5:52 PM EDT (8/3)
Length of Visible Light 15h 19m
Length of Day
14h 17m
Waning Crescent, 9% of the Moon is Illuminated
Aug 3
Waning Crescent
Aug 6
New
Aug 14
First Quarter
Aug 20
Full
Aug 28
Last Quarter

Hourly Weather History & Observations

Time (EDT) Temp. Dew Point Humidity Pressure Visibility Wind Dir Wind Speed Gust Speed Precip Events Conditions
12:54 AM 64.9 °F 59.0 °F 81% 29.90 in 10.0 mi West 3.5 mph - N/A   Partly Cloudy
1:54 AM 63.0 °F 59.0 °F 87% 29.88 in 10.0 mi SSW 3.5 mph - N/A   Clear
2:54 AM 62.1 °F 59.0 °F 90% 29.87 in 10.0 mi SW 3.5 mph - N/A   Partly Cloudy
3:54 AM 63.0 °F 59.0 °F 87% 29.86 in 10.0 mi SW 3.5 mph - N/A   Mostly Cloudy
4:54 AM 63.0 °F 60.1 °F 90% 29.86 in 10.0 mi SSW 5.8 mph - 0.01 in Rain Light Rain
5:54 AM 63.0 °F 59.0 °F 87% 29.87 in 10.0 mi SSW 8.1 mph - 0.00 in Rain Light Rain
6:54 AM 63.0 °F 61.0 °F 93% 29.89 in 10.0 mi WSW 5.8 mph - 0.01 in   Overcast
7:54 AM 64.0 °F 62.1 °F 93% 29.90 in 10.0 mi SSW 6.9 mph - N/A   Mostly Cloudy
8:54 AM 64.9 °F 63.0 °F 93% 29.90 in 10.0 mi WSW 3.5 mph - 0.00 in Rain Light Rain
9:54 AM 66.0 °F 64.0 °F 93% 29.89 in 10.0 mi SW 5.8 mph - 0.00 in   Scattered Clouds
10:54 AM 70.0 °F 64.9 °F 84% 29.89 in 10.0 mi SSW 4.6 mph - N/A   Clear
11:54 AM 71.1 °F 64.9 °F 81% 29.89 in 10.0 mi SSW 10.4 mph - N/A   Scattered Clouds
12:54 PM 73.9 °F 66.9 °F 79% 29.88 in 10.0 mi SSW 10.4 mph - N/A   Scattered Clouds
1:54 PM 77.0 °F 64.9 °F 66% 29.85 in 10.0 mi South 6.9 mph - N/A   Partly Cloudy
2:54 PM 75.9 °F 64.0 °F 67% 29.84 in 10.0 mi SW 11.5 mph - N/A   Overcast
3:54 PM 78.1 °F 66.9 °F 68% 29.83 in 10.0 mi South 10.4 mph - N/A   Partly Cloudy
4:54 PM 77.0 °F 63.0 °F 62% 29.82 in 10.0 mi SW 8.1 mph - N/A   Clear
5:54 PM 75.9 °F 66.0 °F 71% 29.84 in 10.0 mi SSW 5.8 mph - N/A   Clear
6:54 PM 75.0 °F 66.0 °F 73% 29.84 in 10.0 mi SW 9.2 mph - N/A   Clear
7:54 PM 71.1 °F 64.9 °F 81% 29.85 in 10.0 mi WSW 4.6 mph - N/A   Clear
8:54 PM 69.1 °F 64.9 °F 87% 29.87 in 10.0 mi West 5.8 mph - N/A   Clear
9:54 PM 66.9 °F 64.9 °F 93% 29.89 in 9.0 mi Calm Calm - N/A   Clear
10:54 PM 64.0 °F 62.1 °F 93% 29.89 in 3.0 mi Calm Calm - 0.00 in   Partly Cloudy
11:54 PM 62.1 °F 60.1 °F 93% 29.90 in 10.0 mi Calm Calm - N/A   Partly Cloudy